Weather History for KSFY - October, 2013

Change the Weather History Date:

Monday, October 21, 2013

  Actual Average (KCWI) Record (KCWI)
Temperature  
Mean Temperature 40 °F -  
Max Temperature 50 °F 63 °F 85 °F (1978)
Min Temperature 28 °F 40 °F 23 °F (1952)
Degree Days  
Heating Degree Days 25    
Moisture  
Dew Point 29 °F    
Average Humidity 61    
Maximum Humidity 88    
Minimum Humidity 37    
Precipitation  
Precipitation 0.00 in - - ()
Sea Level Pressure  
Sea Level Pressure 29.95 in    
Wind  
Wind Speed 11 mph (West)    
Max Wind Speed 20 mph    
Max Gust Speed 28 mph    
Visibility 10 miles    
Events      
Averages and records for this station are not official NWS values.
T = Trace of Precipitation, MM = Missing Value Source: NWS Daily Summary

Daily Weather History Graph

Daily Weather History Graph

Search for Another Location

Airport or City:

Trip Planner

Search our weather history database for the weather conditions in past years. The results will help you decide how hot, cold, wet, or windy it might be!

Date:

Astronomy

Oct. 21, 2013 Rise Set
Actual Time 7:20 AM CDT 6:09 PM CDT
Civil Twilight 6:51 AM CDT 6:37 PM CDT
Nautical Twilight 6:19 AM CDT 7:10 PM CDT
Astronomical Twilight 5:46 AM CDT 7:42 PM CDT
Moon 7:59 PM CDT (10/21) 9:57 AM CDT (10/21)
Length of Visible Light 11h 45m
Length of Day
10h 48m
Waning Gibbous, 92% of the Moon is Illuminated
Oct 21
Waning Gibbous
Oct 26
Last Quarter
Nov 3
New
Nov 9
First Quarter
Nov 17
Full

Hourly Weather History & Observations

Time (CDT) Temp. Windchill Dew Point Humidity Pressure Visibility Wind Dir Wind Speed Gust Speed Precip Events Conditions
12:15 AM 51.8 °F - 40.6 °F 66% 29.82 in 10.0 mi West 10.4 mph - N/A   Overcast
12:35 AM 50.9 °F - 41.0 °F 69% 29.82 in 10.0 mi West 10.4 mph - N/A   Mostly Cloudy
12:55 AM 50.7 °F - 40.6 °F 68% 29.83 in 10.0 mi West 11.5 mph 19.6 mph N/A   Mostly Cloudy
1:15 AM 50.0 °F - 40.5 °F 70% 29.83 in 10.0 mi WNW 11.5 mph 16.1 mph N/A   Overcast
1:35 AM 48.9 °F - 40.5 °F 73% 29.84 in 10.0 mi West 10.4 mph 19.6 mph N/A   Overcast
1:55 AM 47.8 °F - 40.3 °F 75% 29.85 in 10.0 mi West 10.4 mph 17.3 mph N/A   Scattered Clouds
2:15 AM 47.5 °F - 39.7 °F 75% 29.86 in 10.0 mi WNW 10.4 mph 19.6 mph N/A   Mostly Cloudy
2:35 AM 46.9 °F - 38.3 °F 72% 29.87 in 10.0 mi WNW 13.8 mph 18.4 mph N/A   Overcast
2:55 AM 46.6 °F - 38.3 °F 73% 29.87 in 10.0 mi West 12.7 mph 18.4 mph N/A   Overcast
3:15 AM 45.7 °F 38.8 °F 35.6 °F 68% 29.88 in 10.0 mi West 16.1 mph 24.2 mph N/A   Overcast
3:35 AM 44.8 °F 39.0 °F 34.9 °F 68% 29.89 in 10.0 mi West 11.5 mph 20.7 mph N/A   Overcast
3:55 AM 43.7 °F 36.6 °F 35.1 °F 72% 29.90 in 10.0 mi NW 15.0 mph - N/A   Overcast
4:15 AM 42.4 °F 34.1 °F 32.4 °F 68% 29.91 in 10.0 mi NW 18.4 mph 23.0 mph N/A   Overcast
4:35 AM 41.2 °F 34.5 °F 32.0 °F 70% 29.91 in 10.0 mi NW 11.5 mph 17.3 mph N/A   Overcast
4:55 AM 41.5 °F 34.6 °F 31.8 °F 68% 29.91 in 10.0 mi NW 12.7 mph 17.3 mph N/A   Overcast
5:15 AM 41.5 °F 35.0 °F 31.8 °F 68% 29.92 in 10.0 mi WNW 11.5 mph - N/A   Overcast
5:35 AM 41.2 °F 34.5 °F 30.7 °F 66% 29.93 in 10.0 mi NW 11.5 mph 19.6 mph N/A   Overcast
5:55 AM 41.5 °F 34.6 °F 31.3 °F 67% 29.94 in 10.0 mi WNW 12.7 mph 19.6 mph N/A   Overcast
6:15 AM 41.2 °F 34.1 °F 30.2 °F 65% 29.94 in 10.0 mi NW 12.7 mph 18.4 mph N/A   Overcast
6:35 AM 41.0 °F 35.8 °F 30.6 °F 66% 29.94 in 10.0 mi WNW 8.1 mph - N/A   Overcast
6:55 AM 41.0 °F 34.7 °F 30.6 °F 66% 29.94 in 10.0 mi WNW 10.4 mph - N/A   Overcast
7:15 AM 40.3 °F 34.9 °F 30.9 °F 69% 29.95 in 10.0 mi West 8.1 mph - N/A   Mostly Cloudy
7:35 AM 39.2 °F 33.0 °F 31.1 °F 73% 29.95 in 10.0 mi West 9.2 mph - N/A   Clear
7:55 AM 39.2 °F 34.2 °F 31.1 °F 73% 29.96 in 10.0 mi West 6.9 mph - N/A   Clear
8:15 AM 39.4 °F 33.8 °F 31.5 °F 73% 29.96 in 10.0 mi West 8.1 mph - N/A   Clear
8:35 AM 39.7 °F 33.7 °F 31.6 °F 73% 29.97 in 10.0 mi West 9.2 mph - N/A   Clear
8:55 AM 40.1 °F 33.6 °F 30.6 °F 69% 29.97 in 10.0 mi West 10.4 mph 16.1 mph N/A   Clear
9:15 AM 40.6 °F 33.8 °F 28.2 °F 61% 29.97 in 10.0 mi WNW 11.5 mph 18.4 mph N/A   Clear
9:35 AM 41.4 °F 35.7 °F 29.3 °F 62% 29.97 in 10.0 mi West 9.2 mph 17.3 mph N/A   Clear
9:55 AM 42.1 °F 35.2 °F 28.9 °F 60% 29.98 in 10.0 mi West 12.7 mph 17.3 mph N/A   Clear
10:15 AM 42.3 °F 35.9 °F 28.6 °F 58% 29.98 in 10.0 mi West 11.5 mph 18.4 mph N/A   Scattered Clouds
10:35 AM 41.9 °F 34.6 °F 28.0 °F 58% 29.98 in 10.0 mi WNW 13.8 mph - N/A   Mostly Cloudy
10:55 AM 41.5 °F 35.4 °F 28.0 °F 59% 29.98 in 10.0 mi West 10.4 mph 20.7 mph N/A   Mostly Cloudy
11:15 AM 41.2 °F 33.4 °F 25.9 °F 55% 29.98 in 10.0 mi WNW 15.0 mph 20.7 mph N/A   Mostly Cloudy
11:35 AM 41.7 °F 34.8 °F 25.2 °F 52% 29.98 in 10.0 mi West 12.7 mph 20.7 mph N/A   Overcast
11:55 AM 43.9 °F 38.8 °F 25.3 °F 48% 29.98 in 10.0 mi West 9.2 mph 18.4 mph N/A   Overcast
12:15 PM 42.4 °F 34.4 °F 24.3 °F 49% 29.98 in 10.0 mi West 17.3 mph 21.9 mph N/A   Overcast
12:35 PM 43.3 °F 35.5 °F 24.1 °F 47% 29.98 in 10.0 mi WNW 17.3 mph 21.9 mph N/A   Mostly Cloudy
12:55 PM 43.0 °F 35.7 °F 24.3 °F 48% 29.98 in 10.0 mi WNW 15.0 mph 18.4 mph N/A   Scattered Clouds
1:15 PM 44.2 °F 38.0 °F 23.5 °F 44% 29.97 in 10.0 mi WNW 12.7 mph 18.4 mph N/A   Mostly Cloudy
1:35 PM 45.1 °F 40.3 °F 23.5 °F 43% 29.96 in 10.0 mi WNW 9.2 mph - N/A   Mostly Cloudy
1:55 PM 45.1 °F 38.8 °F 22.3 °F 40% 29.96 in 10.0 mi WNW 13.8 mph 26.5 mph N/A   Scattered Clouds
2:15 PM 45.9 °F 38.8 °F 23.4 °F 41% 29.95 in 10.0 mi WNW 17.3 mph 24.2 mph N/A   Scattered Clouds
2:35 PM 45.9 °F 39.1 °F 21.4 °F 38% 29.95 in 10.0 mi WNW 16.1 mph 21.9 mph N/A   Scattered Clouds
2:55 PM 45.5 °F 38.9 °F 20.7 °F 37% 29.95 in 10.0 mi West 15.0 mph 19.6 mph N/A   Scattered Clouds
3:15 PM 45.9 °F 38.8 °F 21.2 °F 38% 29.95 in 10.0 mi WNW 17.3 mph 20.7 mph N/A   Scattered Clouds
3:35 PM 44.6 °F 36.9 °F 21.7 °F 40% 29.96 in 10.0 mi WNW 18.4 mph 27.6 mph N/A   Scattered Clouds
3:55 PM 43.9 °F 37.2 °F 21.6 °F 41% 29.96 in 10.0 mi West 13.8 mph - N/A   Scattered Clouds
4:15 PM 44.6 °F 36.6 °F 21.9 °F 41% 29.97 in 10.0 mi WNW 19.6 mph 25.3 mph N/A   Scattered Clouds
4:35 PM 43.5 °F 35.5 °F 21.9 °F 42% 29.98 in 10.0 mi West 18.4 mph 24.2 mph N/A   Scattered Clouds
4:55 PM 43.0 °F 36.0 °F 22.3 °F 44% 29.98 in 10.0 mi West 13.8 mph 21.9 mph N/A   Mostly Cloudy
5:15 PM 43.0 °F 36.8 °F 22.6 °F 45% 29.99 in 10.0 mi West 11.5 mph 18.4 mph N/A   Overcast
5:35 PM 43.0 °F 37.2 °F 22.8 °F 45% 29.99 in 10.0 mi West 10.4 mph 17.3 mph N/A   Overcast
5:55 PM 43.0 °F 37.2 °F 23.7 °F 47% 29.98 in 10.0 mi West 10.4 mph - N/A   Overcast
6:15 PM 42.3 °F 37.3 °F 23.9 °F 48% 29.99 in 10.0 mi West 8.1 mph - N/A   Overcast
6:35 PM 41.9 °F 38.2 °F 24.1 °F 49% 29.98 in 10.0 mi West 5.8 mph - N/A   Scattered Clouds
6:55 PM 41.4 °F 37.6 °F 25.2 °F 53% 29.98 in 10.0 mi WSW 5.8 mph - N/A   Clear
7:15 PM 39.6 °F 36.3 °F 26.1 °F 58% 29.98 in 10.0 mi WSW 4.6 mph - N/A   Clear
7:35 PM 39.6 °F 35.4 °F 26.6 °F 60% 29.99 in 10.0 mi WSW 5.8 mph - N/A   Scattered Clouds
7:55 PM 40.1 °F 36.9 °F 26.8 °F 59% 29.98 in 10.0 mi WSW 4.6 mph - N/A   Scattered Clouds
8:15 PM 40.3 °F 37.1 °F 26.4 °F 58% 29.99 in 10.0 mi West 4.6 mph - N/A   Scattered Clouds
8:35 PM 36.1 °F - 27.1 °F 70% 29.99 in 10.0 mi Calm Calm - N/A   Scattered Clouds
8:55 PM 38.7 °F - 27.1 °F 63% 29.99 in 10.0 mi Calm Calm - N/A   Scattered Clouds
9:15 PM 39.2 °F 35.9 °F 27.3 °F 62% 29.99 in 10.0 mi WSW 4.6 mph - N/A   Clear
9:35 PM 39.2 °F 35.9 °F 27.5 °F 63% 29.99 in 10.0 mi WSW 4.6 mph - N/A   Clear
9:55 PM 37.6 °F - 27.5 °F 67% 29.99 in 10.0 mi Calm Calm - N/A   Clear
10:15 PM 32.7 °F - 26.2 °F 77% 29.99 in 10.0 mi Calm Calm - N/A   Clear
10:35 PM 33.1 °F - 26.4 °F 77% 29.99 in 10.0 mi Calm Calm - N/A   Clear
10:55 PM 29.5 °F - 26.2 °F 88% 29.99 in 10.0 mi Calm Calm - N/A   Clear
11:15 PM 30.6 °F 27.1 °F 26.1 °F 83% 29.99 in 10.0 mi SSW 3.5 mph - N/A   Clear
11:35 PM 32.5 °F - 27.5 °F 82% 29.99 in 10.0 mi Calm Calm - N/A   Clear
11:55 PM 28.2 °F - 25.2 °F 88% 29.99 in 10.0 mi Calm Calm - N/A   Clear